[[{"header":{"parameterUnit":"m.s-1","parameterCategory":1,"la1":30.2991,"la2":30.254,"lo1":-89.0895,"lo2":-89.0444,"dy":0.0017,"dx":0.0017,"nx":28,"ny":28,"refTime":"2023-11-23T03:00:00:Z","depth":0,"parameterNumber":2,"parameterNumberName":"U-component_of_WINDS"},"data":[0,0,0,0,0,0,0,0,0,0,0,0,0,0,0,0,0,0,0,0,0,0,0,0,0,0,0,0,0,0,0,0,0,0,0,0,0,0,0,0,0,0,0,0,0,0,0,0,0,0,0,0,0,0,0,0,0,0,0.3265,0.3265,0,0.3272,0.3272,0.3272,0.33,0.33,0.3301,0.3301,0.3308,0.3308,0.3308,0,0,0,0,0,0,0,0,0,0,0,0,0,0.3273,0.3272,0.3265,0.3265,0.3265,0.3272,0.3272,0.3272,0.3299,0.33,0.3301,0.3302,0.3309,0.3308,0.3308,0,0,0,0,0,0,0,0,0,0,0,0,0,0.3274,0.3272,0.3265,0.3279,0.3281,0.3272,0.3272,0.3272,0.3299,0.33,0.3301,0.3302,0.3309,0.3308,0.3308,0.3285,0,0,0.3306,0.3306,0,0,0,0,0,0,0,0,0.3273,0.3273,0.3277,0.3278,0.328,0.3286,0.3278,0.3277,0.3299,0.3292,0.3301,0.3303,0.33,0.33,0.33,0.3286,0.3286,0.3306,0.3305,0.3305,0.3305,0,0,0,0,0,0,0,0.3273,0.3273,0.3268,0.3277,0.3279,0.3285,0.3286,0.3278,0.3291,0.3293,0.3295,0.3295,0.3301,0.33,0.33,0.3286,0.3306,0.3305,0.3305,0.3305,0.3253,0.3252,0,0,0,0,0,0,0.3271,0.3273,0.3267,0.3268,0.3279,0.3284,0.3285,0.3283,0.3291,0.3293,0.3295,0.3297,0.3301,0.3301,0.33,0.3274,0.3305,0.3305,0.3304,0.3254,0.3253,0.3252,0,0,0,0,0,0,0.3271,0.3271,0.3267,0.3271,0.3271,0.3283,0.328,0.3283,0.3282,0.3292,0.3295,0.3291,0.3301,0.3301,0.3289,0.3275,0.3304,0.3304,0.3255,0.3254,0.3252,0.3222,0,0,0,0,0,0,0.3272,0.3271,0.3262,0.327,0.3271,0.3255,0.3279,0.3282,0.3281,0.3283,0.329,0.3292,0.3302,0.3289,0.3288,0.3275,0.3303,0.3257,0.3255,0.3253,0.3224,0.322,0.3216,0,0,0,0,0,0.3272,0.3254,0.3262,0.3261,0.3261,0.3255,0.3255,0.3267,0.328,0.3271,0.3278,0.3292,0.3277,0.3288,0.3287,0.3273,0.3257,0.3255,0.3253,0.3226,0.3221,0.3216,0,0,0,0,0,0,0.3244,0.3255,0.3264,0.3248,0.325,0.3259,0.3249,0.3261,0.3259,0.3262,0.3277,0.3278,0.3263,0.3267,0.3279,0.3251,0.3269,0.3267,0.3249,0.3244,0.324,0.3239,0.3303,0,0,0,0,0,0.3236,0.323,0.324,0.3225,0.3226,0.3237,0.3235,0.3244,0.3247,0.3248,0.3254,0.3255,0.3251,0.3248,0.3244,0.3225,0.3226,0.3215,0.321,0.3207,0.3204,0.3193,0.3188,0.3244,0.3244,0.3244,0,0,0.3219,0.3225,0.322,0.3219,0.3222,0.3215,0.3238,0.323,0.3225,0.3247,0.3235,0.3239,0.3242,0.3226,0.3219,0.3228,0.3189,0.3204,0.3201,0.32,0.3191,0.3185,0.3181,0.3243,0.3243,0.3243,0,0,0.3185,0.3189,0.3177,0.3179,0.3182,0.319,0.3187,0.3194,0.3198,0.3186,0.3202,0.3196,0.3188,0.319,0.3189,0.3155,0.3167,0.3153,0.3131,0.312,0.3116,0.3112,0.3099,0.3094,0.3151,0.3151,0.3151,0,0.3164,0.3155,0.3169,0.316,0.3159,0.3178,0.3165,0.3166,0.3168,0.3167,0.3178,0.3168,0.3171,0.3155,0.3146,0.3146,0.3142,0.3153,0.3115,0.3112,0.3108,0.3096,0.3091,0.3149,0.3149,0.3149,0.315,0,0.3129,0.3122,0.3111,0.3113,0.3111,0.31,0.3111,0.3107,0.3117,0.3123,0.3111,0.3115,0.3113,0.311,0.3119,0.3094,0.31,0.3113,0.3131,0.3101,0.309,0.3085,0.3146,0.3147,0.3148,0.3148,0,0,0.3078,0.3087,0.3083,0.3083,0.3088,0.3083,0.3073,0.307,0.3066,0.3067,0.3058,0.3051,0.3062,0.3062,0.3071,0.3062,0.3033,0.3075,0.3075,0.3067,0.3006,0.2997,0.2991,0.3041,0.3041,0.304,0.3006,0,0.3046,0.3029,0.304,0.3021,0.3015,0.3032,0.3023,0.3025,0.303,0.3025,0.3031,0.3026,0.3041,0.3041,0.3033,0.3039,0.3021,0.3041,0.3033,0.3033,0.3032,0.2985,0.2975,0.2943,0.3002,0.3001,0.3,0,0.3006,0.3005,0.2985,0.299,0.2988,0.298,0.2978,0.2973,0.2975,0.298,0.2978,0.299,0.2979,0.2998,0.2983,0.2996,0.2994,0.2996,0.2995,0.2995,0.3015,0.2983,0.2933,0.2928,0.2994,0.2994,0.2995,0,0.297,0.2964,0.2951,0.2951,0.2957,0.2951,0.2953,0.2956,0.2953,0.2952,0.295,0.2947,0.2946,0.2943,0.2953,0.2965,0.2937,0.2956,0.294,0.2939,0.2933,0.2933,0.2881,0.2932,0.2932,0.2932,0.2932,0,0.2933,0.292,0.2935,0.2927,0.2913,0.2926,0.2911,0.2915,0.2918,0.291,0.2925,0.2918,0.2932,0.2926,0.2934,0.292,0.2919,0.2922,0.2924,0.2921,0.292,0.2919,0.2922,0.293,0.2931,0.2931,0.2931,0,0.2891,0.2901,0.2888,0.2894,0.2896,0.2885,0.289,0.2883,0.2889,0.288,0.2878,0.2888,0.2882,0.2891,0.2886,0.2891,0.2872,0.2878,0.2872,0.2873,0.2856,0.2858,0.2802,0.2795,0.285,0.2849,0.2849,0,0.2867,0.2857,0.2863,0.2859,0.286,0.2854,0.2851,0.2864,0.286,0.2861,0.2854,0.2848,0.2845,0.2834,0.284,0.2836,0.2842,0.2822,0.2841,0.2837,0.2841,0.2841,0.284,0.2818,0.2818,0.2817,0.2817,0,0.2822,0.2827,0.2823,0.282,0.2816,0.2815,0.2814,0.281,0.2823,0.2818,0.2812,0.2809,0.2803,0.2798,0.2795,0.2797,0.2809,0.2811,0.2807,0.2803,0.2799,0.28,0.2861,0.2812,0.2812,0.2813,0.2813,0.2813,0.2788,0.278,0.2782,0.2777,0.2778,0.2777,0.277,0.2775,0.277,0.2766,0.2774,0.2765,0.2767,0.2764,0.2765,0.2758,0.2766,0.2761,0.2759,0.2758,0.2755,0.28,0.2758,0.2758,0.2758,0.2758,0.2758,0,0.2744,0.2746,0.2741,0.2739,0.2735,0.2746,0.2746,0.2741,0.2734,0.2734,0.273,0.2722,0.2717,0.2722,0.2718,0.2711,0.2716,0.271,0.271,0.271,0.2748,0.2752,0.2706,0.2706,0.2706,0.2706,0.2706,0.2706,0.272,0.2707,0.2712,0.2699,0.2701,0.2693,0.2692,0.2691,0.2691,0.2682,0.2677,0.2681,0.2683,0.2679,0.2674,0.2676,0.2673,0.2664,0.2668,0.2703,0.2708,0.2713,0.2716,0.2664,0.2664,0.2631,0.2631,0.2631]},{"header":{"parameterUnit":"m.s-1","parameterCategory":1,"la1":30.2991,"la2":30.254,"lo1":-89.0895,"lo2":-89.0444,"dy":0.0017,"dx":0.0017,"nx":28,"ny":28,"refTime":"2023-11-23T03:00:00:Z","depth":0,"parameterNumber":3,"parameterNumberName":"V-component_of_WINDS"},"data":[0,0,0,0,0,0,0,0,0,0,0,0,0,0,0,0,0,0,0,0,0,0,0,0,0,0,0,0,0,0,0,0,0,0,0,0,0,0,0,0,0,0,0,0,0,0,0,0,0,0,0,0,0,0,0,0,0,0,-0.2912,-0.2912,0,-0.2881,-0.2881,-0.288,-0.287,-0.287,-0.287,-0.2871,-0.2837,-0.2836,-0.2835,0,0,0,0,0,0,0,0,0,0,0,0,0,-0.2961,-0.296,-0.2912,-0.2912,-0.2911,-0.2881,-0.2881,-0.288,-0.287,-0.287,-0.287,-0.2871,-0.2837,-0.2836,-0.2834,0,0,0,0,0,0,0,0,0,0,0,0,0,-0.2936,-0.296,-0.2912,-0.2903,-0.2901,-0.2881,-0.2881,-0.288,-0.287,-0.287,-0.2871,-0.2871,-0.2837,-0.2836,-0.2834,-0.282,0,0,-0.2829,-0.2829,0,0,0,0,0,0,0,0,-0.2937,-0.2934,-0.2904,-0.2903,-0.2902,-0.288,-0.2885,-0.286,-0.287,-0.2882,-0.2871,-0.2871,-0.2851,-0.2848,-0.2842,-0.2819,-0.2817,-0.2829,-0.2828,-0.2828,-0.2827,0,0,0,0,0,0,0,-0.2939,-0.2935,-0.29,-0.2904,-0.2902,-0.2899,-0.2896,-0.288,-0.2865,-0.2881,-0.288,-0.2877,-0.285,-0.2843,-0.2841,-0.2817,-0.2829,-0.2828,-0.2827,-0.2826,-0.2781,-0.2781,0,0,0,0,0,0,-0.2942,-0.2937,-0.2901,-0.2899,-0.292,-0.2898,-0.2895,-0.2887,-0.2866,-0.2863,-0.2877,-0.2876,-0.2846,-0.2843,-0.2839,-0.2822,-0.2828,-0.2826,-0.2825,-0.2782,-0.2781,-0.2781,0,0,0,0,0,0,-0.2943,-0.2939,-0.2902,-0.2917,-0.2912,-0.2897,-0.2888,-0.2886,-0.2879,-0.2862,-0.2859,-0.2872,-0.2846,-0.2842,-0.2825,-0.282,-0.2826,-0.2824,-0.2782,-0.2781,-0.2781,-0.2786,0,0,0,0,0,0,-0.2945,-0.294,-0.2934,-0.2917,-0.2912,-0.2889,-0.2888,-0.2885,-0.2877,-0.2876,-0.2858,-0.2855,-0.2846,-0.2828,-0.2824,-0.2818,-0.2823,-0.2782,-0.2782,-0.2781,-0.2787,-0.2786,-0.2786,0,0,0,0,0,-0.2947,-0.2937,-0.2934,-0.293,-0.2905,-0.2888,-0.2885,-0.2875,-0.2876,-0.2871,-0.286,-0.2855,-0.2822,-0.2826,-0.2822,-0.2816,-0.2782,-0.2782,-0.2781,-0.2787,-0.2786,-0.2786,0,0,0,0,0,0,-0.2952,-0.2934,-0.2931,-0.2916,-0.2904,-0.2887,-0.2879,-0.2875,-0.2862,-0.2862,-0.285,-0.2846,-0.2831,-0.2822,-0.2827,-0.2801,-0.2802,-0.28,-0.2808,-0.2807,-0.2807,-0.2809,-0.2822,0,0,0,0,0,-0.2952,-0.2941,-0.2925,-0.2913,-0.2907,-0.2894,-0.2887,-0.2881,-0.2867,-0.2862,-0.285,-0.2837,-0.2824,-0.2815,-0.2802,-0.2786,-0.2781,-0.2779,-0.2779,-0.2779,-0.2777,-0.2768,-0.2767,-0.2779,-0.2779,-0.2779,0,0,-0.295,-0.2939,-0.2933,-0.2914,-0.2904,-0.2892,-0.289,-0.2877,-0.2868,-0.286,-0.2844,-0.2835,-0.282,-0.2804,-0.2796,-0.2796,-0.2773,-0.2778,-0.2778,-0.2777,-0.2768,-0.2766,-0.2765,-0.2779,-0.2779,-0.2779,0,0,-0.2942,-0.2932,-0.2921,-0.2912,-0.2897,-0.2889,-0.2887,-0.287,-0.2864,-0.2849,-0.2842,-0.2831,-0.2808,-0.2798,-0.2789,-0.2778,-0.2773,-0.2774,-0.2772,-0.2763,-0.2762,-0.2761,-0.2757,-0.2756,-0.2773,-0.2773,-0.2773,0,-0.2941,-0.2924,-0.2916,-0.2904,-0.2895,-0.2889,-0.2877,-0.2868,-0.2849,-0.2844,-0.2844,-0.2816,-0.2805,-0.2786,-0.2784,-0.2777,-0.2774,-0.2776,-0.2763,-0.2762,-0.2761,-0.2757,-0.2756,-0.2773,-0.2773,-0.2773,-0.2773,0,-0.2924,-0.2912,-0.2905,-0.2888,-0.288,-0.2868,-0.2857,-0.2849,-0.2844,-0.2836,-0.282,-0.2807,-0.2791,-0.2787,-0.2781,-0.2767,-0.2767,-0.2766,-0.2766,-0.2761,-0.2756,-0.2755,-0.2773,-0.2773,-0.2773,-0.2773,0,0,-0.2916,-0.2897,-0.2894,-0.2887,-0.2871,-0.2861,-0.285,-0.2835,-0.2828,-0.2816,-0.2806,-0.2787,-0.2786,-0.2776,-0.277,-0.2762,-0.2754,-0.2762,-0.2761,-0.276,-0.2738,-0.2739,-0.2737,-0.2752,-0.2751,-0.2751,-0.2739,0,-0.2905,-0.2884,-0.2877,-0.2859,-0.2848,-0.2842,-0.2832,-0.2821,-0.2813,-0.2802,-0.2794,-0.2781,-0.278,-0.2775,-0.2767,-0.2757,-0.275,-0.2758,-0.2741,-0.274,-0.2744,-0.2735,-0.2735,-0.2725,-0.2738,-0.2737,-0.2737,0,-0.2888,-0.2878,-0.2859,-0.2846,-0.2841,-0.2832,-0.2818,-0.2808,-0.2796,-0.2791,-0.2781,-0.2775,-0.2762,-0.2764,-0.2746,-0.2752,-0.2745,-0.2739,-0.2738,-0.2735,-0.2737,-0.2731,-0.2721,-0.2719,-0.2734,-0.2735,-0.2735,0,-0.2884,-0.2865,-0.2851,-0.2845,-0.2829,-0.2823,-0.2816,-0.2804,-0.2796,-0.2784,-0.2779,-0.2766,-0.2758,-0.2748,-0.2738,-0.2741,-0.2721,-0.2722,-0.2716,-0.2716,-0.2711,-0.2711,-0.2699,-0.2708,-0.2708,-0.2708,-0.2708,0,-0.2871,-0.286,-0.2849,-0.2841,-0.2828,-0.282,-0.2808,-0.28,-0.279,-0.278,-0.2774,-0.2764,-0.2753,-0.2742,-0.2735,-0.2721,-0.2718,-0.2713,-0.2711,-0.2713,-0.2713,-0.2707,-0.2707,-0.2707,-0.2707,-0.2707,-0.2707,0,-0.2863,-0.2856,-0.2841,-0.2828,-0.2824,-0.2815,-0.2804,-0.2795,-0.2788,-0.2776,-0.2772,-0.276,-0.2747,-0.2738,-0.272,-0.2715,-0.27,-0.2698,-0.2704,-0.2703,-0.2697,-0.2697,-0.268,-0.2677,-0.2688,-0.2688,-0.2688,0,-0.2855,-0.2847,-0.2833,-0.2827,-0.282,-0.2809,-0.2802,-0.2794,-0.2786,-0.2772,-0.2765,-0.2752,-0.2741,-0.272,-0.2709,-0.2696,-0.2694,-0.2688,-0.2691,-0.2694,-0.2693,-0.2693,-0.2692,-0.2687,-0.2687,-0.2687,-0.2687,0,-0.2841,-0.2839,-0.2828,-0.2817,-0.2808,-0.2799,-0.2789,-0.2783,-0.2774,-0.2765,-0.2752,-0.2744,-0.2727,-0.2714,-0.27,-0.2692,-0.2688,-0.2687,-0.2684,-0.2686,-0.2689,-0.2687,-0.2702,-0.2687,-0.2687,-0.2687,-0.2687,-0.2687,-0.2832,-0.2825,-0.2815,-0.2803,-0.2796,-0.2787,-0.2779,-0.2771,-0.2761,-0.2747,-0.2743,-0.273,-0.2718,-0.2699,-0.2692,-0.2681,-0.2681,-0.2677,-0.2676,-0.2675,-0.2675,-0.2692,-0.2678,-0.2678,-0.2678,-0.2678,-0.2678,0,-0.2818,-0.2811,-0.2802,-0.2789,-0.278,-0.2779,-0.2768,-0.2761,-0.2749,-0.274,-0.2729,-0.2715,-0.2702,-0.2692,-0.2679,-0.2672,-0.267,-0.2669,-0.2668,-0.2667,-0.2676,-0.2679,-0.2671,-0.2671,-0.2671,-0.2671,-0.2671,-0.2671,-0.2809,-0.2796,-0.2792,-0.2776,-0.2769,-0.2757,-0.2751,-0.2743,-0.2735,-0.2719,-0.271,-0.2703,-0.2693,-0.268,-0.2668,-0.2665,-0.266,-0.266,-0.2656,-0.2665,-0.2666,-0.2667,-0.2669,-0.2659,-0.2659,-0.2647,-0.2647,-0.2647]}]]